Wind_Speed
34 54 66 60 52 54 50 52 49 43 39 39 40 35 36 35 29 22 17 17 16 16 21 17 19 20 21 18 16 16 17 16 15 16 16 17 18 17 18 19 19 21 22 23
53 43 52 53 55 56 57 53 51 47 44 45 43 40 38 40 29 25 22 20 19 20 18 16 17 21 22 22 20 18 19 19 20 19 19 17 16 16 16 17 21 23 24 23
55 38 52 58 57 58 58 57 55 52 48 50 47 46 40 36 34 30 26 24 22 20 21 21 17 19 22 22 23 23 24 23 22 21 19 17 16 17 17 20 21 23 24 26
56 55 47 50 53 54 57 56 57 56 52 53 51 51 44 37 35 35 28 24 23 21 22 22 20 18 18 21 21 26 27 27 25 25 21 20 20 19 23 23 23 26 27 29
65 68 60 51 39 42 49 52 53 54 55 55 55 55 44 43 40 32 27 28 26 25 22 20 20 18 18 19 19 19 20 22 26 27 26 26 24 25 27 27 29 30 32 33
72 69 65 59 51 56 47 50 54 55 54 62 59 56 54 46 39 32 32 31 29 28 23 23 23 22 18 20 18 18 18 20 21 24 27 29 30 30 30 31 33 35 36 37
70 73 70 64 48 55 54 50 57 60 62 66 60 61 61 45 40 34 35 33 32 32 28 27 24 24 24 23 22 21 19 18 20 19 19 21 27 29 32 35 38 40 41 42
67 77 73 70 66 53 44 51 54 69 69 64 64 65 63 47 42 34 37 33 33 33 32 30 27 27 27 26 24 24 22 21 20 21 22 25 27 30 34 37 41 43 45 47
64 65 70 71 74 73 70 64 52 61 69 65 64 63 59 51 43 40 36 35 34 35 35 33 31 29 29 29 30 30 28 28 27 28 29 31 34 36 39 41 43 44 47 50
58 59 57 63 72 69 68 60 64 64 69 72 67 65 60 56 41 40 40 37 37 36 34 34 35 35 34 34 33 32 33 34 34 34 36 37 39 41 42 45 46 47 47 48
61 54 61 58 64 62 60 64 60 59 64 66 67 65 56 52 45 41 39 37 37 37 36 36 38 39 38 37 36 38 39 40 41 41 41 42 43 44 45 46 47 47 48 47
68 70 64 62 60 56 50 52 56 55 54 66 68 66 57 51 47 39 35 34 35 38 41 42 41 41 42 41 43 45 46 46 45 45 45 46 47 48 50 51 52 52 53 54
78 73 62 60 60 62 60 52 54 57 61 57 64 64 57 52 46 45 40 39 41 42 43 43 43 44 46 48 49 48 48 48 48 47 48 49 50 51 51 51 51 51 53 54
85 84 84 84 69 63 60 53 52 58 61 49 50 52 55 55 50 46 43 42 41 43 45 46 48 49 50 51 51 51 51 52 52 52 51 51 52 54 57 58 56 54 52 50
82 85 79 66 70 68 65 61 56 56 49 60 39 50 54 61 58 49 49 50 48 46 46 47 50 52 53 54 54 54 53 52 53 54 54 55 56 57 57 56 56 55 55 52
79 74 77 72 70 66 68 69 62 51 56 54 50 47 42 52 57 55 51 50 51 46 45 47 48 48 49 51 52 53 52 53 54 56 57 59 59 57 55 55 53 53 54 56
77 76 71 83 73 73 75 76 69 51 50 47 55 40 50 52 52 52 50 51 45 46 47 46 44 44 45 44 47 49 50 51 51 51 53 55 54 54 53 53 55 55 57 60
77 71 65 73 73 75 70 62 62 55 52 50 46 48 47 51 54 55 52 51 49 49 49 48 45 43 43 44 45 47 49 50 51 52 52 52 53 53 53 54 54 56 57 58
60 58 62 65 72 66 57 53 55 54 48 47 47 47 43 38 40 52 54 54 54 54 47 42 42 44 44 43 42 42 43 46 49 50 50 50 50 49 47 47 47 46 44 43
65 59 69 68 62 68 50 51 55 58 60 48 47 49 51 49 53 52 51 47 45 43 42 41 40 40 40 41 42 44 46 47 46 45 42 39 37 37 38 40 41 41 41 41
58 68 64 69 71 53 50 57 54 57 40 34 43 48 52 51 47 42 43 47 48 45 42 37 36 36 38 40 43 45 45 44 42 41 41 41 41 39 38 38 37 37 38 39
59 65 67 71 71 57 47 54 52 36 36 38 37 40 46 48 44 40 42 44 42 40 37 39 34 36 39 41 41 42 42 42 40 39 38 37 37 37 37 37 38 37 39 39
60 50 61 65 46 52 47 49 50 46 41 38 42 35 42 44 49 46 41 39 38 40 36 34 36 39 40 40 40 41 41 40 40 41 40 38 38 38 39 39 37 37 38 37
51 48 46 43 50 48 46 45 44 44 36 32 35 37 37 36 38 40 38 38 37 35 36 39 39 39 38 38 39 41 41 42 41 39 36 35 37 38 40 41 41 42 40 39
42 46 46 43 44 42 38 37 42 35 43 43 37 39 36 39 37 40 39 39 39 40 42 40 39 37 36 38 39 37 37 35 33 33 34 34 36 39 40 41 44 45 46 47
50 47 43 44 42 41 37 36 36 38 30 31 34 35 36 37 39 40 41 41 42 44 42 41 39 37 37 38 38 34 34 35 36 37 38 40 43 44 47 47 48 48 47 47
Wind_Direction
227 231 231 235 240 237 237 235 235 236 237 237 237 237 238 243 241 244 232 226 241 242 253 254 245 242 248 247 241 240 239 239 240 246 249 257 261 265 266 271 274 272 271 270
239 227 234 242 239 236 237 236 238 237 237 236 236 233 236 241 239 243 237 226 229 246 254 259 253 242 233 244 244 242 242 243 245 249 251 253 259 262 263 264 266 270 275 276
239 230 231 235 235 234 234 235 237 236 235 238 235 235 235 239 240 237 241 238 234 239 257 258 258 254 245 235 243 246 243 244 246 249 254 256 260 263 266 264 268 273 278 280
222 221 216 225 231 232 232 233 232 233 231 237 240 238 236 234 240 240 240 247 246 243 242 251 248 249 249 236 244 247 253 254 252 253 252 254 256 261 262 266 269 272 275 278
219 223 227 229 241 242 240 234 235 232 234 234 239 243 228 239 238 239 239 244 245 243 242 249 251 245 243 251 252 249 259 266 262 255 253 253 256 258 262 269 271 271 274 275
227 229 232 237 241 238 243 234 238 238 235 233 234 240 234 236 238 235 236 242 241 245 243 246 255 255 250 247 246 253 258 261 271 267 261 260 261 263 267 269 272 275 275 275
230 232 234 235 229 226 234 232 233 239 237 233 232 235 238 232 234 236 239 240 243 245 248 249 252 254 254 254 252 254 259 265 268 268 272 269 269 270 272 274 275 276 278 279
231 230 230 234 233 236 244 244 246 238 237 234 236 236 240 238 240 240 243 240 245 248 248 251 251 250 253 259 265 265 262 260 262 267 266 260 259 263 266 268 269 272 274 276
235 237 235 235 234 241 248 245 249 240 238 243 241 239 240 242 241 243 244 246 242 243 250 257 257 250 251 257 259 264 269 271 269 263 259 263 266 266 267 270 273 275 276 274
233 232 234 235 237 238 246 247 241 238 237 240 240 241 241 244 241 244 246 248 251 252 252 251 253 255 256 252 255 263 266 268 267 263 261 261 261 264 269 272 275 276 278 279
215 229 232 232 229 234 235 234 236 237 237 239 243 243 243 249 248 242 244 246 250 252 253 254 255 255 255 260 263 263 263 264 266 267 268 268 269 270 272 275 277 277 277 277
225 225 228 233 235 228 233 237 240 237 241 237 238 239 243 244 248 246 243 246 248 251 252 251 250 252 257 259 263 263 262 263 266 268 270 273 276 277 277 278 279 278 279 281
216 217 225 224 228 227 231 233 239 238 239 242 242 244 247 249 250 252 249 245 246 248 249 250 251 251 252 254 258 262 264 267 269 271 273 275 275 276 279 281 282 282 282 282
215 218 226 229 242 240 229 237 236 235 239 242 243 241 240 249 250 252 254 251 247 245 246 246 247 250 254 258 261 262 264 267 270 273 275 277 278 280 281 282 283 284 285 286
216 222 226 231 230 232 237 240 238 237 235 238 240 240 239 242 247 251 251 251 254 254 253 252 252 253 256 258 261 262 264 267 268 270 273 276 278 279 283 286 289 288 288 284
212 217 225 235 229 233 233 233 236 238 242 242 237 233 239 241 244 246 245 250 252 257 260 260 262 264 264 262 261 264 268 271 274 276 276 275 277 282 284 286 283 280 277 275
214 219 218 226 230 233 235 232 233 231 234 236 237 230 227 234 237 240 248 254 258 259 261 263 264 265 265 266 267 268 270 271 273 275 278 281 283 284 284 282 279 275 274 275
225 222 220 225 230 234 230 228 230 237 242 239 235 230 237 238 241 245 248 251 251 254 257 261 264 266 265 268 271 273 273 274 276 278 279 280 281 279 278 276 277 278 279 280
214 222 230 226 225 230 231 224 227 237 231 234 226 230 235 239 238 241 243 249 253 255 258 258 260 263 266 271 274 275 276 277 277 276 276 277 277 279 280 282 282 283 283 283
220 220 229 222 235 236 218 229 235 247 240 243 241 239 243 245 243 240 248 253 254 252 255 260 265 269 274 277 278 277 277 277 279 280 280 279 277 278 279 280 279 278 280 282
214 224 224 227 234 232 231 234 242 240 239 244 245 245 244 243 246 248 246 250 250 250 255 262 266 271 274 277 277 279 280 281 282 283 283 282 280 279 278 279 279 281 282 284
221 219 221 227 231 227 230 237 241 241 243 250 243 244 241 240 239 239 238 243 246 251 254 261 266 269 270 272 275 278 281 281 281 280 278 277 277 278 280 283 284 284 286 287
229 230 226 235 226 234 235 235 243 238 247 243 247 236 229 232 233 236 235 236 248 247 252 260 261 264 270 275 276 275 272 272 274 277 278 281 283 282 281 282 282 282 283 285
219 229 232 226 225 232 237 238 240 240 234 233 243 247 236 235 231 232 233 240 244 248 250 250 256 263 268 268 270 273 270 272 277 278 281 286 288 289 289 289 289 286 285 285
226 229 235 231 224 219 221 230 232 229 235 242 249 245 243 240 234 234 238 238 241 244 246 251 258 261 263 266 266 265 269 270 273 278 282 286 288 291 291 290 289 290 291 291
227 230 230 227 224 226 227 227 233 245 241 226 230 229 229 231 231 229 233 237 240 243 247 252 257 257 258 260 262 257 259 266 273 277 279 280 282 285 286 287 288 289 290 290
Height
5751 5756 5760 5772 5779 5787 5794 5797 5801 5808 5814 5817 5822 5828 5829 5829 5834 5839 5843 5846 5847 5848 5849 5854 5855 5858 5858 5857 5859 5860 5861 5862 5862 5862 5863 5865 5866 5867 5866 5867 5867 5867 5867 5866
5743 5750 5758 5763 5772 5778 5783 5790 5795 5800 5806 5807 5812 5818 5823 5822 5830 5833 5837 5841 5843 5843 5845 5848 5850 5852 5853 5852 5853 5855 5855 5857 5857 5858 5858 5859 5860 5862 5862 5861 5861 5860 5860 5861
5736 5752 5746 5753 5762 5769 5775 5782 5787 5791 5796 5797 5803 5808 5814 5820 5823 5827 5832 5835 5838 5840 5841 5843 5845 5847 5847 5847 5847 5848 5850 5852 5853 5853 5854 5854 5856 5857 5857 5855 5855 5855 5854 5854
5727 5733 5738 5745 5754 5761 5767 5774 5776 5780 5787 5790 5795 5799 5807 5813 5817 5819 5825 5829 5832 5836 5837 5838 5841 5843 5843 5842 5843 5843 5843 5845 5848 5849 5850 5850 5850 5851 5849 5850 5850 5849 5848 5847
5722 5727 5735 5738 5754 5755 5761 5766 5768 5772 5777 5782 5787 5788 5805 5805 5809 5815 5819 5823 5826 5828 5832 5834 5836 5837 5838 5838 5839 5838 5839 5838 5840 5843 5843 5843 5844 5845 5844 5843 5843 5842 5841 5841
5706 5716 5719 5733 5740 5745 5748 5756 5760 5763 5766 5765 5777 5782 5790 5798 5805 5810 5811 5815 5820 5821 5826 5828 5829 5830 5832 5833 5834 5834 5834 5833 5834 5835 5836 5837 5838 5838 5838 5837 5836 5834 5834 5833
5696 5700 5713 5721 5726 5729 5739 5746 5749 5751 5751 5759 5766 5768 5778 5795 5798 5803 5805 5808 5812 5815 5819 5821 5824 5824 5825 5826 5828 5829 5830 5830 5830 5830 5830 5831 5832 5832 5832 5831 5829 5828 5826 5825
5681 5686 5698 5713 5719 5730 5737 5738 5741 5740 5743 5753 5754 5761 5770 5787 5793 5796 5798 5802 5805 5809 5812 5814 5817 5818 5820 5820 5821 5822 5823 5824 5824 5825 5825 5825 5824 5823 5823 5822 5820 5818 5817 5815
5673 5683 5696 5701 5713 5719 5723 5721 5737 5734 5739 5743 5747 5757 5765 5776 5786 5790 5792 5793 5798 5801 5803 5806 5809 5812 5813 5813 5813 5813 5815 5816 5817 5817 5815 5814 5814 5813 5813 5811 5809 5809 5807 5804
5666 5673 5681 5689 5693 5697 5705 5724 5719 5722 5727 5732 5739 5745 5755 5765 5779 5782 5786 5788 5790 5794 5797 5798 5799 5801 5803 5805 5806 5807 5807 5807 5807 5807 5807 5806 5805 5804 5803 5801 5801 5799 5797 5794
5662 5664 5670 5675 5674 5689 5699 5698 5708 5717 5720 5725 5731 5737 5752 5758 5767 5774 5777 5781 5783 5785 5787 5789 5791 5792 5793 5796 5797 5797 5798 5797 5797 5796 5796 5796 5796 5795 5793 5792 5790 5788 5785 5783
5653 5655 5656 5666 5674 5684 5686 5694 5700 5702 5713 5716 5718 5726 5737 5749 5755 5763 5769 5771 5774 5776 5778 5780 5783 5785 5786 5787 5788 5787 5786 5786 5785 5785 5785 5785 5784 5783 5781 5780 5779 5777 5774 5772
5634 5638 5644 5651 5657 5665 5672 5685 5693 5698 5703 5706 5713 5723 5731 5739 5746 5750 5757 5761 5763 5765 5768 5771 5773 5776 5777 5778 5778 5777 5776 5776 5775 5773 5773 5772 5771 5769 5768 5766 5764 5762 5760 5759
5624 5625 5629 5637 5652 5668 5669 5676 5683 5687 5690 5699 5702 5716 5724 5725 5732 5738 5743 5746 5752 5754 5758 5761 5763 5765 5766 5766 5766 5766 5766 5765 5764 5763 5762 5761 5760 5759 5757 5754 5752 5750 5747 5745
5607 5615 5627 5637 5643 5652 5663 5667 5670 5671 5687 5681 5705 5701 5711 5717 5719 5727 5730 5732 5736 5742 5747 5751 5753 5754 5755 5756 5755 5754 5753 5753 5753 5752 5751 5750 5748 5746 5744 5742 5740 5737 5735 5732
5597 5607 5615 5628 5633 5638 5643 5651 5658 5665 5672 5678 5685 5693 5703 5707 5707 5712 5719 5721 5723 5728 5732 5736 5739 5741 5742 5743 5743 5743 5742 5741 5740 5739 5738 5737 5735 5733 5731 5729 5727 5724 5721 5718
5585 5595 5603 5611 5623 5625 5623 5635 5647 5660 5666 5672 5667 5692 5687 5692 5697 5702 5707 5710 5714 5716 5718 5722 5725 5728 5729 5730 5730 5731 5730 5729 5728 5727 5725 5724 5722 5719 5717 5715 5712 5709 5707 5704
5575 5585 5593 5601 5607 5602 5612 5629 5641 5647 5653 5658 5663 5670 5676 5683 5688 5690 5693 5697 5701 5705 5707 5709 5711 5713 5715 5715 5716 5716 5716 5716 5714 5713 5712 5710 5707 5705 5702 5700 5698 5696 5693 5691
5561 5574 5579 5583 5590 5596 5608 5621 5630 5635 5646 5650 5653 5658 5664 5670 5673 5677 5682 5687 5691 5694 5697 5699 5699 5700 5701 5702 5702 5702 5702 5702 5701 5700 5698 5696 5694 5692 5690 5688 5686 5684 5681 5678
5554 5561 5565 5572 5580 5587 5608 5612 5620 5621 5621 5637 5644 5650 5653 5656 5658 5670 5673 5678 5681 5683 5684 5686 5688 5689 5689 5690 5691 5691 5691 5689 5688 5685 5684 5683 5682 5680 5678 5677 5675 5673 5669 5667
5542 5547 5554 5563 5571 5584 5593 5598 5603 5604 5628 5629 5633 5638 5641 5645 5658 5659 5661 5666 5668 5670 5673 5675 5676 5677 5679 5679 5679 5679 5679 5678 5676 5675 5674 5672 5671 5668 5666 5664 5662 5660 5657 5654
5533 5537 5544 5553 5560 5575 5584 5587 5598 5614 5614 5616 5622 5626 5630 5639 5639 5643 5648 5651 5658 5663 5663 5666 5666 5667 5668 5668 5667 5667 5667 5666 5666 5665 5663 5661 5658 5656 5654 5652 5650 5648 5646 5643
5526 5536 5544 5554 5563 5573 5579 5585 5590 5597 5605 5608 5609 5615 5621 5621 5626 5633 5639 5643 5645 5648 5650 5653 5654 5655 5657 5657 5657 5656 5656 5655 5655 5653 5652 5650 5649 5646 5644 5642 5639 5637 5635 5633
5523 5532 5538 5546 5554 5563 5569 5575 5582 5587 5592 5595 5601 5605 5608 5612 5617 5621 5626 5630 5634 5637 5639 5640 5642 5645 5646 5646 5645 5645 5645 5644 5644 5644 5642 5641 5638 5635 5634 5633 5631 5630 5626 5623
5517 5525 5533 5539 5545 5553 5554 5562 5571 5576 5582 5585 5589 5592 5596 5601 5606 5611 5615 5618 5620 5623 5628 5629 5631 5633 5634 5635 5634 5633 5634 5634 5633 5632 5631 5629 5628 5627 5626 5624 5622 5619 5618 5616
5506 5515 5521 5529 5536 5542 5548 5556 5562 5568 5571 5573 5579 5582 5586 5591 5596 5597 5601 5606 5611 5614 5615 5617 5618 5620 5622 5623 5624 5622 5621 5621 5620 5619 5618 5617 5616 5615 5613 5611 5610 5608 5605 5602